Florence, SC

1:19 PM EDT on June 28, 2017 (GMT -0400)
Florence Regional

Weather History for KFLO - June, 2013

Change the Weather History Date:

Saturday, June 29, 2013

  Actual Average Record
Temperature  
Mean Temperature 82 °F 80 °F  
Max Temperature 88 °F 90 °F 105 °F (2012)
Min Temperature 75 °F 71 °F 54 °F (1981)
Degree Days  
Heating Degree Days 0 0  
Month to date heating degree days 0 0  
Since 1 June heating degree days 0 0  
Since 1 July heating degree days 2335 2523  
Cooling Degree Days 17 15  
Month to date cooling degree days 408 381  
Year to date cooling degree days 675 688  
Since 1 June cooling degree days 408 381  
Growing Degree Days 32 (Base 50)    
Moisture  
Dew Point 71 °F    
Average Humidity 72    
Maximum Humidity 85    
Minimum Humidity 59    
Precipitation  
Precipitation 0.00 in 0.16 in 1.18 in (2005)
Month to date precipitation 7.89 4.47  
Year to date precipitation 26.72 19.83  
Sea Level Pressure  
Sea Level Pressure 29.69 in    
Wind  
Wind Speed 9 mph (SSW)    
Max Wind Speed 15 mph    
Max Gust Speed 20 mph    
Visibility 10 miles    
Events      
T = Trace of Precipitation, MM = Missing Value Source: NWS Daily Summary

Daily Weather History Graph

Daily Weather History Graph

Search for Another Location

Airport or City:

Trip Planner

Search our weather history database for the weather conditions in past years. The results will help you decide how hot, cold, wet, or windy it might be!

Date:

Astronomy

Jun. 29, 2013 Rise Set
Actual Time 6:10 AM EDT 8:34 PM EDT
Civil Twilight 5:40 AM EDT 9:03 PM EDT
Nautical Twilight 5:04 AM EDT 9:39 PM EDT
Astronomical Twilight 4:25 AM EDT 10:19 PM EDT
Moon 12:21 AM EDT (6/29) 12:59 PM EDT (6/29)
Length of Visible Light 15h 23m
Length of Day
14h 24m
Waning Gibbous, 56% of the Moon is Illuminated
Jun 29
Waning Gibbous
Jun 30
Last Quarter
Jul 8
New
Jul 15
First Quarter
Jul 22
Full

Hourly Weather History & Observations

Time (EDT) Temp. Heat Index Dew Point Humidity Pressure Visibility Wind Dir Wind Speed Gust Speed Precip Events Conditions
12:53 AM 81.0 °F 86.2 °F 73.9 °F 79% 29.65 in 10.0 mi SSW 8.1 mph - N/A   Clear
1:53 AM 80.1 °F 83.6 °F 71.1 °F 74% 29.64 in 10.0 mi WSW 9.2 mph - N/A   Scattered Clouds
2:53 AM 79.0 °F - 71.1 °F 77% 29.65 in 10.0 mi SSW 6.9 mph - N/A   Scattered Clouds
3:53 AM 78.1 °F - 69.1 °F 74% 29.64 in 10.0 mi SSW 10.4 mph - N/A   Clear
4:53 AM 77.0 °F - 68.0 °F 74% 29.66 in 10.0 mi SW 10.4 mph - N/A   Clear
5:53 AM 75.9 °F - 69.1 °F 79% 29.67 in 10.0 mi SSW 11.5 mph - N/A   Overcast
6:53 AM 75.0 °F - 69.1 °F 82% 29.69 in 10.0 mi SSW 10.4 mph - N/A   Scattered Clouds
7:40 AM 75.2 °F - 69.8 °F 83% 29.71 in 10.0 mi SSW 13.8 mph 19.6 mph N/A   Overcast
7:53 AM 75.9 °F - 69.1 °F 79% 29.70 in 10.0 mi SSW 12.7 mph - N/A   Overcast
8:23 AM 75.2 °F - 69.8 °F 83% 29.71 in 10.0 mi SSW 9.2 mph - N/A   Overcast
8:53 AM 77.0 °F - 70.0 °F 79% 29.70 in 10.0 mi SW 8.1 mph - N/A   Overcast
9:53 AM 77.0 °F - 70.0 °F 79% 29.70 in 10.0 mi SW 9.2 mph - N/A   Overcast
10:53 AM 78.1 °F - 71.1 °F 79% 29.70 in 10.0 mi WSW 8.1 mph - N/A   Overcast
11:53 AM 81.0 °F 84.4 °F 70.0 °F 69% 29.70 in 10.0 mi SW 6.9 mph - N/A   Mostly Cloudy
12:53 PM 82.0 °F 86.3 °F 71.1 °F 69% 29.70 in 10.0 mi SW 8.1 mph - N/A   Overcast
1:33 PM 82.4 °F 87.2 °F 71.6 °F 70% 29.71 in 10.0 mi SSW 10.4 mph - N/A   Overcast
1:53 PM 84.0 °F 89.0 °F 71.1 °F 65% 29.70 in 10.0 mi South 8.1 mph - N/A   Mostly Cloudy
2:53 PM 86.0 °F 93.0 °F 73.0 °F 65% 29.68 in 10.0 mi SSW 9.2 mph - N/A   Mostly Cloudy
3:53 PM 87.1 °F 92.8 °F 71.1 °F 59% 29.68 in 10.0 mi SSW 11.5 mph - N/A   Partly Cloudy
4:53 PM 88.0 °F 93.8 °F 71.1 °F 57% 29.67 in 10.0 mi SSW 9.2 mph - N/A   Partly Cloudy
5:53 PM 86.0 °F 93.0 °F 73.0 °F 65% 29.67 in 10.0 mi South 8.1 mph - N/A   Scattered Clouds
6:53 PM 84.0 °F 91.2 °F 73.9 °F 72% 29.68 in 10.0 mi South 6.9 mph - N/A   Clear
7:53 PM 82.0 °F 87.4 °F 73.0 °F 74% 29.70 in 10.0 mi SSW 6.9 mph - N/A   Clear
8:53 PM 81.0 °F 85.8 °F 73.0 °F 77% 29.71 in 10.0 mi South 8.1 mph - N/A   Overcast
9:53 PM 80.1 °F 84.2 °F 73.0 °F 79% 29.73 in 10.0 mi SSW 5.8 mph - N/A   Overcast
10:53 PM 79.0 °F - 73.0 °F 82% 29.75 in 10.0 mi South 11.5 mph - N/A   Mostly Cloudy
11:53 PM 78.1 °F - 73.0 °F 84% 29.74 in 10.0 mi South 10.4 mph - N/A   Partly Cloudy